Location: Trois-Rivi�res
(46.3500°N, 72.5500°W)
Time: 13:12:04
(UTC-04:00)

Daily predictions for brighter satellites

Satellite Brightness Start Highest point End
(mag) Time Altitude Azimuth Time Altitude Azimuth Time Altitude Azimuth
Cosmos 1674 4.1 18:52:26 10° NNE 18:55:24 20° ENE 18:58:21 10° ESE
ATLAS 3B R/B 4.3 18:49:59 10° W 18:56:50 36° NW 19:03:28 10° NNE
Cosmos 1953 2.9 18:53:33 10° SSE 18:57:11 35° E 19:00:51 10° NNE
Helios 1B rocket 3.8 18:55:27 10° NE 18:58:23 19° E 19:01:16 10° SE
Cosmos 1743 Rocket 4.3 18:54:49 10° N 18:58:49 32° ENE 19:02:47 10° SE
Okean 3 Rocket 4.5 18:55:13 10° NNW 18:59:43 58° W 19:04:10 10° S
Cosmos 2333 Rocket 4.0 18:55:25 10° WSW 19:00:37 34° NW 19:05:51 10° NNE
ATLAS 5 CENTAUR R/B 1.9 18:56:06 10° SSW 19:00:54 75° SE 19:06:10 10° NE
Cosmos 1470 4.2 19:01:49 10° SE 19:04:26 17° E 19:07:02 10° NE
Cosmos 1544 3.7 19:09:21 10° SSE 19:12:46 35° E 19:16:13 10° NNE
SAR-Lupe-4 3.5 19:09:46 10° SSE 19:13:20 83° ENE 19:16:56 10° NNW
Cosmos 2237 Rocket 4.1 19:08:35 10° WSW 19:13:37 32° NW 19:18:40 10° NNE
Resurs 01 Rocket 1.9 19:13:06 10° SE 19:17:20 45° ENE 19:21:36 10° N
METEOR-M 4.2 19:12:39 10° SSE 19:17:53 58° ENE 19:23:08 10° N
COSMO-SKYMED 1 2.9 19:14:24 10° N 19:18:45 73° WNW 19:23:04 10° SSW
SL-8 R/B 4.0 19:17:30 10° SW 19:22:07 50° SSE 19:26:10 13° ENE
NOSS 3-2 (A) 4.0 19:16:40 10° SW 19:22:48 67° NW 19:29:35 10° NE
Cosmos 1076 Rocket 4.2 19:20:10 10° NNW 19:24:26 59° W 19:28:43 10° S
SJ-6B 2.9 19:20:38 10° SSE 19:24:39 86° WSW 19:28:48 10° NNW
ALOS 3.0 19:21:21 10° SE 19:25:31 33° ENE 19:29:43 10° N
Nadezhda 4 Rocket 4.0 19:19:26 10° N 19:25:40 63° ENE 19:31:49 10° SSE
FengYun 1-2 T 4.4 19:20:29 10° SE 19:25:44 49° ENE 19:31:01 10° N
Cosmos 1484 Rocket 4.2 19:23:58 10° S 19:27:39 42° W 19:31:25 10° NNW
ASTEX 1 4.1 19:25:18 10° NNE 19:29:41 31° E 19:34:01 10° SSE
Cosmos 2151 3.9 19:28:22 10° NNE 19:32:00 27° ENE 19:34:34 16° ESE
ATLAS CENTAUR R/B 3.9 19:26:36 10° SW 19:32:06 84° SE 19:50:39 10° NE
Cosmos 1766 Rocket 4.3 19:30:58 10° NNW 19:35:16 55° W 19:39:29 10° S
GP-B 4.2 19:31:39 10° NNE 19:35:18 24° E 19:37:51 15° SE
Meteor 1-29 3.6 19:32:44 10° NNE 19:35:59 34° E 19:39:10 10° SSE
SL-16 R/B 3.5 19:31:13 10° SW 19:36:37 43° NW 19:42:03 10° NNE
Cosmos 1092 Rocket 4.1 19:30:31 10° N 19:36:38 56° ENE 19:42:39 10° SSE
Cosmos 839 Rocket 4.4 19:29:01 10° NNW 19:37:00 67° NE 19:43:04 12° SE
Cosmos-2242 3.0 19:33:43 10° S 19:38:06 90° SW 19:42:33 10° N
FENGYUN 3A 3.9 19:33:43 10° SE 19:38:50 47° ENE 19:44:00 10° N
Cosmos 724 4.4 19:35:13 10° SW 19:41:11 82° NW 19:47:21 10° NE
Cosmos 1758 3.7 19:38:26 10° SSW 19:42:31 69° W 19:46:38 10° N
Cosmos 2221 4.0 19:45:07 18° ENE 19:45:07 18° ENE 19:47:11 10° NE
CENTAUR R/B 2.7 19:39:39 10° S 19:45:28 49° ESE 19:52:01 10° NE
Cosmos 2026 Rocket 4.4 19:40:44 10° N 19:46:25 38° ENE 19:51:17 14° SE
ISS -3.3 19:43:27 10° SW 19:46:40 62° SSE 19:48:05 29° ENE
Cosmos 1655 Rocket 4.5 19:44:57 10° N 19:50:43 38° ENE 19:54:54 17° SE
Meteor 1-28 Rocket 3.7 19:48:05 10° N 19:51:47 60° WNW 19:55:25 10° SSW
Abrixas 2.3 19:49:18 10° WSW 19:52:18 76° SSE 19:53:12 40° E
Cosmos 2251 Rocket 4.2 19:49:55 10° SSE 19:54:26 30° E 19:58:59 10° NE
Cosmos 1634 Rocket 4.1 19:50:19 10° SSE 19:56:18 50° E 20:02:15 10° NNE
CZ-2D R/B 3.4 19:57:19 25° SE 19:59:19 52° ENE 20:03:07 10° N
Cosmos 1328 3.9 19:55:57 10° N 19:59:51 51° ENE 20:01:42 27° SE
Cosmos 1943 Rocket 2.5 19:54:50 10° NNW 20:00:15 45° NE 20:02:50 27° ESE
Cosmos 1331 Rocket 4.2 19:55:20 10° NNW 20:00:32 51° ENE 20:03:18 26° SE
SL-14 R/B 4.0 19:57:42 10° N 20:01:25 34° ENE 20:01:44 33° E
NOSS 3-2 (C) 4.4 19:58:00 10° WSW 20:04:01 49° NW 20:10:40 10° NE
ERBS 2.5 20:01:45 10° NW 20:05:13 57° NE 20:05:53 47° E
Cosmos 1500 Rocket 3.8 20:02:23 10° NNW 20:06:50 73° W 20:11:16 10° S
H-2A R/B 2.7 20:06:03 30° SSE 20:07:50 64° ENE 20:11:40 10° N
Cosmos 2195 Rocket 4.5 20:02:41 10° N 20:09:00 64° ENE 20:15:09 11° SSE
Cosmos 1842 Rocket 3.5 20:06:53 10° S 20:11:13 83° W 20:15:37 10° N
Helios 1A 3.6 20:07:17 10° S 20:11:25 56° W 20:15:36 10° NNW
Cosmos 2369 Rocket 2.4 20:06:01 10° NNW 20:11:41 74° WSW 20:16:53 12° SSE
Cosmos 1302 Rocket 4.5 20:10:01 10° N 20:14:56 41° ENE 20:15:59 36° E
Cosmos 1943 3.1 20:10:21 10° SSW 20:15:58 78° ESE 20:21:36 10° NNE
Spot 2 Rocket 4.4 20:12:50 10° S 20:17:42 48° W 20:22:36 10° NNW
Cosmos 1939 Rocket 4.4 20:19:19 21° NE 20:19:19 21° NE 20:21:17 10° NNE
Cosmos 1666 Rocket 4.5 20:16:17 10° N 20:19:40 32° NE 20:19:40 32° NE
Cosmos 2263 4.3 20:20:03 10° NNW 20:25:50 78° WSW 20:29:26 24° SSE
Cosmos 1733 3.7 20:23:58 10° SSW 20:27:47 62° W 20:31:38 10° N
Envisat 3.5 20:28:38 38° ENE 20:28:38 38° ENE 20:33:17 10° N
Cosmos 158 Rocket 3.8 20:24:03 10° SSW 20:28:56 82° WNW 20:33:51 10° NNE
USA 215 3.2 20:25:37 24° ENE 20:29:41 59° SE 20:36:06 10° SW
Gbstr 26 Del rocket 3.2 20:26:47 10° SW 20:31:21 77° SSE 20:32:55 46° ENE
Helios 1B rocket 3.7 20:30:00 10° N 20:33:53 42° WNW 20:37:47 10° SW
Cosmos 1174 4.0 20:29:50 10° SW 20:34:15 69° NW 20:35:32 39° NNE
Cosmos 1470 4.3 20:36:39 10° SW 20:40:15 36° WNW 20:43:53 10° N
CZ-4B DEB 4.4 20:39:43 28° SW 20:40:41 34° W 20:43:43 10° NNW
ATLAS 5 CENTAUR R/B 3.9 20:42:00 10° W 20:46:11 26° NNW 20:50:44 10° NNE
Sich 1 3.9 20:45:38 10° N 20:48:36 39° NNE 20:48:36 39° NNE
Resurs 01 Rocket 4.2 20:50:45 10° SW 20:54:02 20° W 20:57:20 10° NW
Cosmos 2058 3.4 20:51:33 10° NNW 20:55:37 57° W 20:55:45 57° WSW
ERS-1 Rocket 2.9 20:56:03 71° NE 20:56:03 71° NE 21:00:50 10° N
H-2A R/B 4.3 20:59:00 12° NNE 20:59:00 12° NNE 20:59:44 10° NNE
Cosmos 1656 Rocket 3.7 20:55:06 10° NNW 21:00:08 60° NE 21:00:08 60° NE
UNK 4.3 20:39:58 10° WNW 21:00:34 86° NNE 21:02:05 57° E
Meteor 1-16 Rocket 4.4 20:55:20 10° SSW 21:00:36 66° WNW 21:05:57 10° N
Cosmos 2180 Rocket 4.3 21:00:26 54° SSE 21:01:53 78° E 21:08:04 10° N
ALOS 4.0 20:58:54 10° SSW 21:02:58 30° W 21:07:05 10° NNW
Meteor 2-1 Rocket 4.3 20:58:10 10° SSW 21:03:58 84° W 21:09:56 10° N
SL-8 R/B 3.9 20:59:49 10° W 21:04:09 68° WNW 21:04:09 68° WNW
Cosmos 2279 Rocket 4.1 21:09:23 11° SSW 21:15:17 72° W 21:21:32 10° N
H-2A R/B 3.9 21:20:18 25° N 21:20:18 25° N 21:22:17 10° N
Cosmos 2221 3.8 21:21:55 39° NW 21:21:55 39° NW 21:25:29 10° N
ISS -0.1 21:20:13 10° W 21:20:46 14° WNW 21:20:46 14° WNW
Cosmos 2266 Rocket 4.1 21:23:50 10° N 21:29:25 69° NNE 21:29:25 69° NNE
CENTAUR R/B 3.6 21:30:13 10° WSW 21:36:15 44° NW 21:43:04 10° NE
Cosmos 1980 Rocket 4.5 21:38:41 10° N 21:40:28 13° NNE 21:40:28 13° NNE
Cosmos 1943 Rocket 3.6 21:38:57 10° NW 21:43:49 31° WSW 21:44:23 30° WSW
USA 215 3.7 22:13:01 56° NW 22:13:01 56° NW 22:19:02 10° WSW
H-2A R/B 4.5 22:39:39 17° NNW 22:39:39 17° NNW 22:40:50 10° NNW
ATLAS 3B R/B 4.4 22:37:36 10° NNW 22:42:59 24° NNE 22:42:59 24° NNE
